This is the latest recevied weather packets stored in our database for station/object iw0uwf-4. If no packets are shown the sender has not sent any weather packets the latest 1 day(s).
| Time | Temp. | Humidity | Pressure | Rain* | Wind** | Luminosity | Snow |
|---|---|---|---|---|---|---|---|
| 1778031664 | 14.44° C | 76% | 1003.9 hPa | 0 mm | 3.13 m/s, 267° | 0 W/m² | - |
| 1778031604 | 14.44° C | 76% | 1003.8 hPa | 0 mm | 3.13 m/s, 267° | 0 W/m² | - |
| 1778031544 | 14.44° C | 76% | 1003.9 hPa | 0 mm | 3.13 m/s, 265° | 0 W/m² | - |
| 1778031484 | 14.44° C | 76% | 1003.8 hPa | 0 mm | 3.13 m/s, 253° | 0 W/m² | - |
| 1778031424 | 14.44° C | 76% | 1003.7 hPa | 0 mm | 3.13 m/s, 251° | 0 W/m² | - |
| 1778031364 | 14.44° C | 76% | 1003.8 hPa | 0 mm | 3.13 m/s, 264° | 0 W/m² | - |
| 1778031303 | 14.44° C | 76% | 1003.8 hPa | 0 mm | 3.13 m/s, 263° | 0 W/m² | - |
| 1778031243 | 15° C | 75% | 1003.7 hPa | 0 mm | 3.13 m/s, 253° | 0 W/m² | - |
| 1778031183 | 15° C | 75% | 1003.8 hPa | 0 mm | 3.13 m/s, 248° | 0 W/m² | - |
| 1778031123 | 15° C | 75% | 1003.9 hPa | 0 mm | 3.13 m/s, 246° | 0 W/m² | - |
| 1778031063 | 15° C | 75% | 1003.8 hPa | 0 mm | 3.13 m/s, 250° | 0 W/m² | - |
| 1778031003 | 15° C | 75% | 1003.8 hPa | 0 mm | 3.13 m/s, 263° | 0 W/m² | - |
| 1778030943 | 15° C | 75% | 1003.8 hPa | 0 mm | 3.13 m/s, 269° | 0 W/m² | - |
| 1778030883 | 15° C | 75% | 1003.8 hPa | 0 mm | 3.13 m/s, 277° | 0 W/m² | - |
| 1778030823 | 15° C | 74% | 1004 hPa | 0 mm | 3.13 m/s, 280° | 0 W/m² | - |
| 1778030763 | 15° C | 74% | 1003.9 hPa | 0 mm | 3.13 m/s, 273° | 0 W/m² | - |
| 1778030704 | 15° C | 74% | 1003.7 hPa | 0 mm | 3.13 m/s, 266° | 0 W/m² | - |
| 1778030644 | 15° C | 74% | 1003.8 hPa | 0 mm | 3.13 m/s, 270° | 0 W/m² | - |
| 1778030584 | 15° C | 74% | 1003.8 hPa | 0 mm | 3.13 m/s, 273° | 0 W/m² | - |
| 1778030524 | 15° C | 73% | 1003.9 hPa | 0 mm | 3.58 m/s, 274° | 0 W/m² | - |
| 1778030464 | 15° C | 73% | 1003.7 hPa | 0 mm | 3.13 m/s, 272° | 0 W/m² | - |
| 1778030404 | 15° C | 73% | 1003.9 hPa | 0 mm | 3.13 m/s, 252° | 0 W/m² | - |
| 1778030223 | 15° C | 72% | 1003.9 hPa | 0 mm | 3.13 m/s, 247° | 0 W/m² | - |
| 1778030164 | 15° C | 72% | 1003.7 hPa | 0 mm | 3.13 m/s, 244° | 0 W/m² | - |
| 1778030104 | 15° C | 71% | 1003.7 hPa | 0 mm | 3.13 m/s, 243° | 0 W/m² | - |
* Rain latest hour (hover to see other rain measurements)
** Current wind speed in m/s (hover to see current wind gust speed)